Home   Weather   Boise   Past weeks

Flag for USA Past Weather in Boise, Idaho, USA — Yesterday and Last 2 Weeks

Now
85 °F

Sunny.


Feels Like: 82 °F
Forecast: 69 / 94 °F
Wind: 14 mph from West

Location: Boise Air Terminal

Current Time: Aug 30, 2016 at 4:50:43 PM

Latest Report: Aug 30, 2016 at 3:53 PM


Visibility: 9 mi

Pressure: 29.80 "Hg (27.16 "Hg at 822m altitude)

Humidity: 21%

Dew Point: 41 °F

Location of BoiseLocation

Past Weather in Boise — Graph

°F

Boise Temperature Yesterday

Maximum temperature yesterday: 91 °F (at 4:53 PM)
Minimum temperature yesterday: 68 °F (at 6:53 AM)
Average temperature yesterday: 79 °F

High & Low Weather Summary for the Past Weeks

 TemperatureHumidityPressure
High98 °F (Aug 16, 6:53 PM)56% (Aug 24, 5:53 AM)30.11 "Hg (Aug 24, 5:53 AM)
Low50 °F (Aug 23, 6:53 AM)8% (Aug 21, 4:53 PM)29.65 "Hg (Aug 21, 8:53 PM)
Average76 °F27%29.89 "Hg
* Reported Aug 15 2:53 PM — Aug 30 2:53 PM, Boise, Weather by CustomWeather, © 2016

Note: Actual official high and low records may vary slightly from our data, if they occured in-between our weather recording intervals... More about our weather records

Advertising

Boise Weather History for the Previous 24 Hours

Scroll right to see more
 ConditionsComfort  
Time TempWeatherWind HumidityBarometerVisibility
2:53 PM
Tue, Aug 30
87 °FSunny.9 mph17%29.81 "Hg7 mi
1:53 PM84 °FSunny.9 mph19%29.84 "Hg8 mi
12:53 PM80 °FSunny.6 mph24%29.89 "Hg7 mi
11:53 AM77 °FSunny.8 mph32%29.90 "Hg6 mi
10:53 AM80 °FSunny.7 mph17%29.90 "Hg4 mi
9:53 AM73 °FSunny.No wind28%29.90 "Hg7 mi
8:53 AM68 °FClear.No wind38%29.91 "Hg8 mi
7:53 AM70 °FClear.7 mph25%29.90 "Hg7 mi
6:53 AM68 °FClear.8 mph26%29.88 "Hg10 mi
5:53 AM70 °FClear.No wind26%29.87 "Hg10 mi
4:53 AM68 °FClear.5 mph36%29.89 "Hg10 mi
3:53 AM71 °FClear.5 mph23%29.88 "Hg9 mi
2:53 AM72 °FClear.8 mph23%29.88 "Hg10 mi
1:53 AM74 °FClear.5 mph21%29.89 "Hg10 mi
12:53 AM73 °FClear.5 mph23%29.89 "Hg10 mi
11:53 PM
Mon, Aug 29
76 °FClear.3 mph22%29.91 "Hg10 mi
10:53 PM76 °FClear.5 mph25%29.93 "Hg10 mi
10:00 PM80 °FSunny.No wind26%30.01 "Hg2 mi
8:53 PM85 °FSunny.No wind16%29.90 "Hg10 mi
7:53 PM87 °FSunny.5 mph16%29.90 "Hg10 mi
6:53 PM89 °FSunny.6 mph14%29.90 "Hg10 mi
5:53 PM91 °FSunny.9 mph13%29.92 "Hg10 mi
4:53 PM91 °FSunny.12 mph17%29.93 "Hg10 mi
Weather by CustomWeather, © 2016

See weather overviewHow to use our weather pages